Year,Month,Day,Hour,Minute,Value (Times are PST for temperature in C)
2006,06,12,00,11,10.80
2006,06,12,00,12,10.80
2006,06,12,00,13,10.80
2006,06,12,00,14,10.80
2006,06,12,00,15,10.80
2006,06,12,00,16,10.80
2006,06,12,00,17,10.80
2006,06,12,00,18,10.80
2006,06,12,00,19,10.80
2006,06,12,00,20,10.80
2006,06,12,00,21,10.80
2006,06,12,00,22,10.80
2006,06,12,00,23,10.80
2006,06,12,00,24,10.80
2006,06,12,00,25,10.90
2006,06,12,00,26,10.90
2006,06,12,00,27,10.90
2006,06,12,00,28,10.90
2006,06,12,00,29,10.90
2006,06,12,00,30,10.90
2006,06,12,00,31,10.90
2006,06,12,00,32,10.90
2006,06,12,00,33,10.90
2006,06,12,00,34,10.90
2006,06,12,00,35,10.90
2006,06,12,00,36,10.90
2006,06,12,00,37,10.90
2006,06,12,00,38,10.90
2006,06,12,00,39,10.90
2006,06,12,00,40,10.90
2006,06,12,00,41,10.90
2006,06,12,00,42,10.90
2006,06,12,00,43,10.90
2006,06,12,00,44,11.70
2006,06,12,00,45,11.70
2006,06,12,00,46,11.70
2006,06,12,00,47,11.70
2006,06,12,00,48,11.70
2006,06,12,00,49,11.70
2006,06,12,00,50,11.70
2006,06,12,00,51,11.70
2006,06,12,00,52,11.70
2006,06,12,00,53,11.70
2006,06,12,00,54,11.70
2006,06,12,00,55,11.70
2006,06,12,00,56,11.70
2006,06,12,00,57,11.70
2006,06,12,00,58,11.70
2006,06,12,00,59,11.70
2006,06,12,01,00,11.70
2006,06,12,01,01,11.70
2006,06,12,01,02,11.70
2006,06,12,01,03,11.20
2006,06,12,01,04,11.20
2006,06,12,01,05,11.20
2006,06,12,01,06,11.20
2006,06,12,01,07,11.20
2006,06,12,01,08,11.20
2006,06,12,01,09,11.20
2006,06,12,01,10,11.20
2006,06,12,01,11,11.20
2006,06,12,01,12,11.20
2006,06,12,01,13,11.20
2006,06,12,01,14,11.20
2006,06,12,01,15,11.20
2006,06,12,01,16,11.20
2006,06,12,01,17,11.20
2006,06,12,01,18,11.20
2006,06,12,01,19,11.20
2006,06,12,01,20,11.20
2006,06,12,01,22,11.30
2006,06,12,01,23,11.30
2006,06,12,01,24,11.30
2006,06,12,01,25,11.30
2006,06,12,01,26,11.30
2006,06,12,01,27,11.30
2006,06,12,01,28,11.30
2006,06,12,01,29,11.30
2006,06,12,01,30,11.30
2006,06,12,01,31,11.30
2006,06,12,01,32,11.30
2006,06,12,01,33,11.30
2006,06,12,01,34,11.30
2006,06,12,01,35,11.30
2006,06,12,01,36,11.30
2006,06,12,01,37,11.30
2006,06,12,01,38,11.30
2006,06,12,01,39,11.30
2006,06,12,01,40,11.30
2006,06,12,01,41,11.30
2006,06,12,01,42,11.30
2006,06,12,01,43,11.30
2006,06,12,01,44,11.30
2006,06,12,01,45,10.90
2006,06,12,01,46,10.90
2006,06,12,01,47,10.90
2006,06,12,01,48,10.90
2006,06,12,01,49,10.90
2006,06,12,01,50,10.90
2006,06,12,01,51,10.90
2006,06,12,01,52,10.90
2006,06,12,01,53,10.90
2006,06,12,01,54,10.90
2006,06,12,01,55,10.90
2006,06,12,01,56,10.90
2006,06,12,01,57,10.90
2006,06,12,01,58,10.90
2006,06,12,01,59,10.90
2006,06,12,02,00,10.90
2006,06,12,02,01,10.90
2006,06,12,02,02,10.90
2006,06,12,02,03,10.90
2006,06,12,02,04,11.20
2006,06,12,02,05,11.20
2006,06,12,02,06,11.20
2006,06,12,02,07,11.20
2006,06,12,02,08,11.20
2006,06,12,02,09,11.20
2006,06,12,02,10,11.20
2006,06,12,02,11,11.20
2006,06,12,02,12,11.20
2006,06,12,02,13,11.20
2006,06,12,02,14,11.20
2006,06,12,02,15,11.20
2006,06,12,02,16,11.20
2006,06,12,02,17,11.20
2006,06,12,02,18,11.20
2006,06,12,02,19,11.20
2006,06,12,02,20,11.20
2006,06,12,02,21,11.20
2006,06,12,02,22,11.20
2006,06,12,02,23,10.90
2006,06,12,02,24,10.90
2006,06,12,02,25,10.90
2006,06,12,02,26,10.90
2006,06,12,02,27,10.90
2006,06,12,02,28,10.90
2006,06,12,02,29,10.90
2006,06,12,02,30,10.90
2006,06,12,02,31,10.90
2006,06,12,02,32,10.90
2006,06,12,02,33,10.90
2006,06,12,02,35,10.90
2006,06,12,02,36,10.90
2006,06,12,02,37,10.90
2006,06,12,02,38,10.90
2006,06,12,02,39,10.90
2006,06,12,02,40,10.90
2006,06,12,02,41,10.90
2006,06,12,02,42,10.90
2006,06,12,02,43,10.60
2006,06,12,02,44,10.60
2006,06,12,02,45,10.60
2006,06,12,02,46,10.60
2006,06,12,02,47,10.60
2006,06,12,02,49,10.60
2006,06,12,02,50,10.60
2006,06,12,02,51,10.60
2006,06,12,02,52,10.60
2006,06,12,02,53,10.60
2006,06,12,02,54,10.60
2006,06,12,02,56,10.60
2006,06,12,02,57,10.60
2006,06,12,02,58,10.60
2006,06,12,02,59,10.60
2006,06,12,03,01,10.60
2006,06,12,03,02,10.60
2006,06,12,03,03,10.60
2006,06,12,03,04,10.60
2006,06,12,03,05,10.70
2006,06,12,03,06,10.70
2006,06,12,03,07,10.70
2006,06,12,03,08,10.70
2006,06,12,03,09,10.70
2006,06,12,03,10,10.70
2006,06,12,03,11,10.70
2006,06,12,03,12,10.70
2006,06,12,03,13,10.70
2006,06,12,03,14,10.70
2006,06,12,03,15,10.70
2006,06,12,03,16,10.70
2006,06,12,03,17,10.70
2006,06,12,03,18,10.70
2006,06,12,03,19,10.70
2006,06,12,03,20,10.70
2006,06,12,03,21,10.70
2006,06,12,03,22,10.70
2006,06,12,03,23,10.70
2006,06,12,03,24,11.10
2006,06,12,03,25,11.10
2006,06,12,03,27,11.10
2006,06,12,03,28,11.10
2006,06,12,03,29,11.10
2006,06,12,03,30,11.10
2006,06,12,03,32,11.10
2006,06,12,03,33,11.10
2006,06,12,03,34,11.10
2006,06,12,03,35,11.10
2006,06,12,03,36,11.10
2006,06,12,03,37,11.10
2006,06,12,03,39,11.10
2006,06,12,03,40,11.10
2006,06,12,03,41,11.10
2006,06,12,03,42,11.10
2006,06,12,03,43,10.70
2006,06,12,03,44,10.70
2006,06,12,03,45,10.70
2006,06,12,03,46,10.70
2006,06,12,03,47,10.70
2006,06,12,03,48,10.70
2006,06,12,03,49,10.70
2006,06,12,03,50,10.70
2006,06,12,03,51,10.70
2006,06,12,03,52,10.70
2006,06,12,03,53,10.70
2006,06,12,03,54,10.70
2006,06,12,03,55,10.70
2006,06,12,03,57,10.70
2006,06,12,03,58,10.70
2006,06,12,03,59,10.70
2006,06,12,04,00,10.70
2006,06,12,04,01,10.70
2006,06,12,04,02,10.80
2006,06,12,04,03,10.80
2006,06,12,04,04,10.80
2006,06,12,04,05,10.80
2006,06,12,04,06,10.80
2006,06,12,04,07,10.80
2006,06,12,04,08,10.80
2006,06,12,04,09,10.80
2006,06,12,04,10,10.70
2006,06,12,04,12,10.70
2006,06,12,04,13,10.70
2006,06,12,04,14,10.70
2006,06,12,04,15,10.70
2006,06,12,04,16,10.70
2006,06,12,04,17,10.70
2006,06,12,04,18,10.70
2006,06,12,04,19,10.70
2006,06,12,04,20,10.70
2006,06,12,04,21,10.70
2006,06,12,04,22,10.70
2006,06,12,04,23,10.70
2006,06,12,04,24,10.70
2006,06,12,04,25,10.70
2006,06,12,04,26,10.70
2006,06,12,04,27,10.70
2006,06,12,04,28,10.70
2006,06,12,04,29,10.70
2006,06,12,04,30,10.70
2006,06,12,04,32,10.70
2006,06,12,04,33,10.70
2006,06,12,04,34,10.70
2006,06,12,04,35,10.70
2006,06,12,04,36,10.70
2006,06,12,04,37,10.70
2006,06,12,04,38,10.70
2006,06,12,04,39,10.70
2006,06,12,04,40,10.70
2006,06,12,04,41,10.70
2006,06,12,04,42,10.70
2006,06,12,04,43,10.70
2006,06,12,04,44,10.70
2006,06,12,04,45,10.70
2006,06,12,04,46,10.70
2006,06,12,04,47,10.70
2006,06,12,04,48,10.70
2006,06,12,04,49,10.70
2006,06,12,04,50,10.70
2006,06,12,04,51,10.70
2006,06,12,04,52,10.70
2006,06,12,04,53,10.70
2006,06,12,04,54,10.70
2006,06,12,04,55,10.70
2006,06,12,04,57,10.70
2006,06,12,04,58,10.70
2006,06,12,04,59,10.70
2006,06,12,05,00,10.70
2006,06,12,05,01,10.70
2006,06,12,05,02,11.20
2006,06,12,05,03,11.20
2006,06,12,05,04,11.20
2006,06,12,05,05,11.20
2006,06,12,05,06,11.20
2006,06,12,05,07,11.20
2006,06,12,05,08,11.20
2006,06,12,05,09,11.20
2006,06,12,05,10,11.20
2006,06,12,05,11,11.20
2006,06,12,05,12,11.20
2006,06,12,05,13,11.20
2006,06,12,05,14,11.20
2006,06,12,05,15,11.20
2006,06,12,05,16,11.20
2006,06,12,05,17,11.20
2006,06,12,05,18,11.20
2006,06,12,05,19,11.20
2006,06,12,05,20,11.00
2006,06,12,05,21,11.00
2006,06,12,05,22,11.00
2006,06,12,05,23,11.00
2006,06,12,05,24,11.00
2006,06,12,05,25,11.00
2006,06,12,05,26,11.00
2006,06,12,05,27,11.00
2006,06,12,05,28,11.00
2006,06,12,05,29,11.00
2006,06,12,05,30,11.10
2006,06,12,05,31,11.10
2006,06,12,05,32,11.10
2006,06,12,05,33,11.10
2006,06,12,05,34,11.10
2006,06,12,05,35,11.10
2006,06,12,05,36,11.10
2006,06,12,05,37,11.10
2006,06,12,05,38,11.10
2006,06,12,05,39,11.10
2006,06,12,05,40,11.10
2006,06,12,05,41,11.10
2006,06,12,05,42,11.10
2006,06,12,05,43,11.10
2006,06,12,05,44,11.10
2006,06,12,05,45,11.10
2006,06,12,05,46,11.10
2006,06,12,05,47,11.10
2006,06,12,05,48,11.10
2006,06,12,05,49,11.10
2006,06,12,05,50,11.10
2006,06,12,05,51,11.10
2006,06,12,05,52,11.10
2006,06,12,05,53,11.10
2006,06,12,05,54,11.10
2006,06,12,05,55,11.10
2006,06,12,05,56,11.10
2006,06,12,05,57,11.10
2006,06,12,05,58,11.10
2006,06,12,05,59,11.10
2006,06,12,06,00,11.10
2006,06,12,06,01,11.10
2006,06,12,06,02,11.20
2006,06,12,06,03,11.20
2006,06,12,06,04,11.20
2006,06,12,06,05,11.20
2006,06,12,06,06,11.20
2006,06,12,06,07,11.20
2006,06,12,06,08,11.20
2006,06,12,06,09,11.20
2006,06,12,06,10,11.20
2006,06,12,06,11,11.20
2006,06,12,06,12,11.20
2006,06,12,06,13,11.20
2006,06,12,06,14,11.20
2006,06,12,06,15,11.20
2006,06,12,06,16,11.20
2006,06,12,06,17,11.20
2006,06,12,06,18,11.20
2006,06,12,06,19,11.20
2006,06,12,06,21,11.00
2006,06,12,06,22,11.00
2006,06,12,06,23,11.00
2006,06,12,06,24,11.00
2006,06,12,06,25,11.00
2006,06,12,06,26,11.00
2006,06,12,06,27,11.00
2006,06,12,06,28,11.00
2006,06,12,06,29,11.00
2006,06,12,06,30,11.00
2006,06,12,06,31,11.00
2006,06,12,06,32,11.00
2006,06,12,06,33,11.00
2006,06,12,06,34,11.00
2006,06,12,06,35,11.00
2006,06,12,06,36,11.00
2006,06,12,06,37,11.00
2006,06,12,06,38,11.00
2006,06,12,06,39,11.00
2006,06,12,06,40,11.20
2006,06,12,06,41,11.20
2006,06,12,06,42,11.20
2006,06,12,06,44,11.20
2006,06,12,06,46,11.20
2006,06,12,06,47,11.20
2006,06,12,06,48,11.20
2006,06,12,06,49,10.80
2006,06,12,06,50,10.80
2006,06,12,06,51,10.80
2006,06,12,06,52,10.80
2006,06,12,06,53,10.80
2006,06,12,06,54,10.80
2006,06,12,06,55,10.80
2006,06,12,06,57,10.80
2006,06,12,06,58,10.80
2006,06,12,06,59,10.80
2006,06,12,07,00,10.80
2006,06,12,07,01,10.80
2006,06,12,07,02,10.80
2006,06,12,07,03,10.80
2006,06,12,07,04,10.80
2006,06,12,07,05,10.80
2006,06,12,07,06,10.80
2006,06,12,07,07,10.80
2006,06,12,07,08,10.80
2006,06,12,07,09,10.80
2006,06,12,07,10,10.80
2006,06,12,07,11,10.80
2006,06,12,07,12,10.80
2006,06,12,07,13,10.80
2006,06,12,07,14,10.80
2006,06,12,07,15,10.80
2006,06,12,07,16,10.80
2006,06,12,07,17,10.80
2006,06,12,07,18,10.80
2006,06,12,07,19,10.80
2006,06,12,07,20,10.80
2006,06,12,07,21,11.70
2006,06,12,07,22,11.70
2006,06,12,07,23,11.70
2006,06,12,07,24,11.70
2006,06,12,07,25,11.70
2006,06,12,07,26,11.70
2006,06,12,07,28,11.70
2006,06,12,07,29,11.70
2006,06,12,07,30,11.70
2006,06,12,07,31,11.70
2006,06,12,07,32,11.70
2006,06,12,07,33,11.70
2006,06,12,07,34,11.70
2006,06,12,07,35,11.70
2006,06,12,07,36,11.70
2006,06,12,07,37,11.70
2006,06,12,07,38,11.70
2006,06,12,07,39,11.70
2006,06,12,07,41,11.90
2006,06,12,07,42,11.90
2006,06,12,07,43,11.90
2006,06,12,07,44,11.90
2006,06,12,07,45,11.90
2006,06,12,07,47,11.90
2006,06,12,07,48,11.90
2006,06,12,07,49,11.90
2006,06,12,07,50,11.90
2006,06,12,07,51,11.90
2006,06,12,07,52,11.90
2006,06,12,07,53,11.90
2006,06,12,07,54,11.90
2006,06,12,07,55,11.90
2006,06,12,07,56,11.90
2006,06,12,07,57,11.90
2006,06,12,07,58,11.90
2006,06,12,07,59,11.90
2006,06,12,08,00,12.60
2006,06,12,08,01,12.60
2006,06,12,08,02,12.60
2006,06,12,08,03,12.60
2006,06,12,08,04,12.60
2006,06,12,08,05,12.60
2006,06,12,08,06,12.60
2006,06,12,08,07,12.60
2006,06,12,08,08,12.60
2006,06,12,08,09,12.60
2006,06,12,08,10,12.60
2006,06,12,08,11,12.60
2006,06,12,08,12,12.60
2006,06,12,08,13,12.60
2006,06,12,08,14,12.60
2006,06,12,08,15,12.60
2006,06,12,08,16,12.60
2006,06,12,08,17,12.60
2006,06,12,08,18,12.60
2006,06,12,08,19,12.60
2006,06,12,08,20,12.60
2006,06,12,08,21,12.60
2006,06,12,08,22,12.40
2006,06,12,08,23,12.40
2006,06,12,08,24,12.40
2006,06,12,08,25,12.40
2006,06,12,08,26,12.40
2006,06,12,08,27,12.40
2006,06,12,08,28,12.40
2006,06,12,08,29,12.40
2006,06,12,08,30,12.40
2006,06,12,08,31,12.40
2006,06,12,08,32,12.40
2006,06,12,08,33,12.40
2006,06,12,08,34,12.40
2006,06,12,08,35,12.40
2006,06,12,08,36,12.40
2006,06,12,08,37,12.40
2006,06,12,08,38,12.40
2006,06,12,08,39,12.40
2006,06,12,08,40,12.40
2006,06,12,08,41,12.60
2006,06,12,08,42,12.60
2006,06,12,08,43,12.60
2006,06,12,08,44,12.60
2006,06,12,08,45,12.60
2006,06,12,08,46,12.60
2006,06,12,08,47,12.60
2006,06,12,08,48,12.60
2006,06,12,08,49,12.60
2006,06,12,08,50,12.60
2006,06,12,08,51,12.60
2006,06,12,08,52,12.60
2006,06,12,08,53,12.60
2006,06,12,08,54,12.60
2006,06,12,08,55,12.60
2006,06,12,08,56,12.60
2006,06,12,08,57,12.60
2006,06,12,08,58,12.60
2006,06,12,08,59,12.60
2006,06,12,09,00,12.60
2006,06,12,09,01,12.60
2006,06,12,09,02,12.60
2006,06,12,09,03,12.60
2006,06,12,09,04,12.60
2006,06,12,09,05,12.60
2006,06,12,09,06,12.60
2006,06,12,09,07,12.60
2006,06,12,09,08,12.60
2006,06,12,09,09,12.60
2006,06,12,09,10,12.60
2006,06,12,09,11,12.60
2006,06,12,09,12,12.60
2006,06,12,09,13,12.60
2006,06,12,09,14,12.60
2006,06,12,09,15,12.60
2006,06,12,09,16,12.60
2006,06,12,09,17,12.60
2006,06,12,09,19,12.40
2006,06,12,09,20,12.40
2006,06,12,09,22,12.40
2006,06,12,09,23,12.40
2006,06,12,09,24,12.40
2006,06,12,09,25,12.40
2006,06,12,09,26,12.40
2006,06,12,09,27,12.40
2006,06,12,09,28,12.60
2006,06,12,09,29,12.60
2006,06,12,09,30,12.60
2006,06,12,09,31,12.60
2006,06,12,09,32,12.60
2006,06,12,09,33,12.60
2006,06,12,09,34,12.60
2006,06,12,09,35,12.60
2006,06,12,09,36,12.60
2006,06,12,09,37,12.60
2006,06,12,09,38,12.60
2006,06,12,09,39,12.60
2006,06,12,09,40,12.60
2006,06,12,09,41,12.60
2006,06,12,09,42,12.60
2006,06,12,09,43,12.60
2006,06,12,09,44,12.60
2006,06,12,09,45,12.60
2006,06,12,09,46,12.60
2006,06,12,09,47,12.60
2006,06,12,09,48,12.60
2006,06,12,09,49,12.60
2006,06,12,09,50,12.60
2006,06,12,09,51,12.60
2006,06,12,09,52,12.60
2006,06,12,09,53,12.60
2006,06,12,09,54,12.60
2006,06,12,09,55,12.60
2006,06,12,09,56,12.60
2006,06,12,09,57,12.60
2006,06,12,09,59,12.60
2006,06,12,10,00,12.60
2006,06,12,10,01,13.40
2006,06,12,10,02,13.40
2006,06,12,10,03,13.40
2006,06,12,10,04,13.40
2006,06,12,10,05,13.40
2006,06,12,10,06,13.40
2006,06,12,10,07,13.40
2006,06,12,10,08,13.40
2006,06,12,10,09,13.40
2006,06,12,10,10,13.40
2006,06,12,10,11,13.40
2006,06,12,10,13,13.40
2006,06,12,10,14,13.40
2006,06,12,10,15,13.40
2006,06,12,10,16,13.40
2006,06,12,10,17,13.40
2006,06,12,10,18,13.40
2006,06,12,10,19,13.40
2006,06,12,10,20,14.20
2006,06,12,10,21,14.20
2006,06,12,10,22,14.20
2006,06,12,10,23,14.20
2006,06,12,10,24,14.20
2006,06,12,10,25,14.20
2006,06,12,10,26,14.20
2006,06,12,10,27,14.20
2006,06,12,10,28,14.20
2006,06,12,10,29,14.20
2006,06,12,10,30,14.20
2006,06,12,10,31,14.20
2006,06,12,10,32,14.20
2006,06,12,10,33,14.20
2006,06,12,10,34,14.20
2006,06,12,10,35,14.20
2006,06,12,10,36,14.20
2006,06,12,10,37,14.20
2006,06,12,10,38,14.20
2006,06,12,10,39,14.40
2006,06,12,10,40,14.40
2006,06,12,10,41,14.40
2006,06,12,10,43,14.40
2006,06,12,10,44,14.40
2006,06,12,10,45,14.40
2006,06,12,10,46,14.40
2006,06,12,10,47,14.40
2006,06,12,10,48,13.90
2006,06,12,10,49,13.90
2006,06,12,10,50,13.90
2006,06,12,10,51,13.90
2006,06,12,10,52,13.90
2006,06,12,10,53,13.90
2006,06,12,10,54,13.90
2006,06,12,10,55,13.90
2006,06,12,10,56,13.90
2006,06,12,10,57,13.90
2006,06,12,10,58,13.90
2006,06,12,10,59,13.90
2006,06,12,11,00,13.90
2006,06,12,11,01,13.60
2006,06,12,11,02,13.60
2006,06,12,11,03,13.60
2006,06,12,11,04,13.60
2006,06,12,11,05,13.60
2006,06,12,11,06,13.60
2006,06,12,11,07,13.60
2006,06,12,11,08,13.60
2006,06,12,11,09,13.60
2006,06,12,11,10,13.60
2006,06,12,11,11,13.60
2006,06,12,11,12,13.60
2006,06,12,11,13,13.60
2006,06,12,11,14,13.60
2006,06,12,11,15,13.60
2006,06,12,11,16,13.60
2006,06,12,11,17,13.60
2006,06,12,11,18,13.60
2006,06,12,11,19,13.60
2006,06,12,11,21,14.10
2006,06,12,11,22,14.10
2006,06,12,11,23,14.10
2006,06,12,11,24,14.10
2006,06,12,11,25,14.10
2006,06,12,11,26,14.10
2006,06,12,11,27,14.10
2006,06,12,11,28,14.10
2006,06,12,11,30,14.10
2006,06,12,11,31,14.10
2006,06,12,11,33,14.10
2006,06,12,11,34,14.10
2006,06,12,11,35,14.10
2006,06,12,11,36,14.10
2006,06,12,11,37,14.10
2006,06,12,11,38,14.10
2006,06,12,11,39,14.10
2006,06,12,11,40,14.30
2006,06,12,11,41,14.30
2006,06,12,11,42,14.30
2006,06,12,11,43,14.30
2006,06,12,11,44,14.30
2006,06,12,11,45,14.30
2006,06,12,11,46,14.30
2006,06,12,11,47,14.30
2006,06,12,11,48,14.30
2006,06,12,11,49,14.30
2006,06,12,11,50,14.30
2006,06,12,11,51,14.30
2006,06,12,11,52,14.30
2006,06,12,11,53,14.30
2006,06,12,11,54,14.30
2006,06,12,11,55,14.30
2006,06,12,11,56,14.30
2006,06,12,11,57,14.30
2006,06,12,11,58,14.30
2006,06,12,11,59,14.10
2006,06,12,12,00,14.10
2006,06,12,12,01,14.10
2006,06,12,12,02,14.10
2006,06,12,12,03,14.10
2006,06,12,12,04,14.10
2006,06,12,12,05,14.10
2006,06,12,12,06,14.10
2006,06,12,12,07,14.10
2006,06,12,12,08,14.40
2006,06,12,12,09,14.40
2006,06,12,12,10,14.40
2006,06,12,12,11,14.40
2006,06,12,12,12,14.40
2006,06,12,12,13,14.40
2006,06,12,12,14,14.40
2006,06,12,12,15,14.40
2006,06,12,12,16,14.40
2006,06,12,12,17,14.40
2006,06,12,12,18,14.40
2006,06,12,12,19,14.40
2006,06,12,12,20,14.40
2006,06,12,12,21,14.60
2006,06,12,12,22,14.60
2006,06,12,12,23,14.60
2006,06,12,12,24,14.60
2006,06,12,12,25,14.60
2006,06,12,12,26,14.60
2006,06,12,12,27,14.60
2006,06,12,12,28,14.60
2006,06,12,12,29,14.60
2006,06,12,12,30,14.60
2006,06,12,12,32,14.60
2006,06,12,12,33,14.60
2006,06,12,12,34,14.60
2006,06,12,12,35,14.60
2006,06,12,12,36,14.60
2006,06,12,12,37,14.60
2006,06,12,12,38,14.60
2006,06,12,12,39,14.60
2006,06,12,12,40,14.80
2006,06,12,12,41,14.80
2006,06,12,12,42,14.80
2006,06,12,12,43,14.80
2006,06,12,12,44,14.80
2006,06,12,12,45,14.80
2006,06,12,12,46,14.80
2006,06,12,12,47,14.80
2006,06,12,12,48,14.80
2006,06,12,12,49,14.80
2006,06,12,12,50,14.80
2006,06,12,12,51,14.80
2006,06,12,12,52,14.80
2006,06,12,12,53,14.80
2006,06,12,12,54,14.80
2006,06,12,12,55,14.80
2006,06,12,12,56,14.80
2006,06,12,12,57,14.80
2006,06,12,12,58,14.80
2006,06,12,12,59,15.10
2006,06,12,13,00,15.10
2006,06,12,13,01,15.10
2006,06,12,13,02,15.10
2006,06,12,13,03,15.10
2006,06,12,13,04,15.10
2006,06,12,13,05,15.10
2006,06,12,13,06,15.10
2006,06,12,13,07,15.10
2006,06,12,13,08,15.10
2006,06,12,13,09,15.10
2006,06,12,13,10,15.10
2006,06,12,13,11,15.10
2006,06,12,13,12,15.10
2006,06,12,13,13,15.10
2006,06,12,13,14,15.10
2006,06,12,13,15,15.10
2006,06,12,13,16,15.10
2006,06,12,13,17,15.10
2006,06,12,13,18,15.10
2006,06,12,13,19,15.10
2006,06,12,13,20,15.10
2006,06,12,13,21,15.10
2006,06,12,13,22,15.10
2006,06,12,13,24,15.10
2006,06,12,13,25,15.10
2006,06,12,13,26,15.10
2006,06,12,13,27,15.80
2006,06,12,13,28,15.80
2006,06,12,13,30,15.80
2006,06,12,13,31,15.80
2006,06,12,13,32,15.80
2006,06,12,13,33,15.80
2006,06,12,13,34,15.80
2006,06,12,13,35,15.80
2006,06,12,13,36,15.80
2006,06,12,13,37,15.80
2006,06,12,13,39,15.80
2006,06,12,13,40,15.30
2006,06,12,13,41,15.30
2006,06,12,13,42,15.30
2006,06,12,13,44,15.30
2006,06,12,13,45,15.30
2006,06,12,13,46,15.30
2006,06,12,13,47,15.30
2006,06,12,13,48,15.30
2006,06,12,13,49,15.30
2006,06,12,13,50,15.30
2006,06,12,13,51,15.30
2006,06,12,13,52,15.30
2006,06,12,13,53,15.30
2006,06,12,13,54,15.30
2006,06,12,13,55,15.30
2006,06,12,13,56,15.30
2006,06,12,13,57,15.30
2006,06,12,13,58,15.30
2006,06,12,13,59,15.30
2006,06,12,14,00,14.00
2006,06,12,14,01,14.00
2006,06,12,14,02,14.00
2006,06,12,14,03,14.00
2006,06,12,14,04,14.00
2006,06,12,14,05,14.00
2006,06,12,14,06,14.00
2006,06,12,14,07,14.00
2006,06,12,14,08,14.00
2006,06,12,14,09,14.00
2006,06,12,14,10,14.00
2006,06,12,14,11,14.00
2006,06,12,14,12,14.00
2006,06,12,14,13,14.00
2006,06,12,14,14,14.00
2006,06,12,14,15,14.00
2006,06,12,14,16,14.00
2006,06,12,14,17,14.00
2006,06,12,14,18,14.10
2006,06,12,14,19,14.10
2006,06,12,14,20,14.10
2006,06,12,14,21,14.10
2006,06,12,14,22,14.10
2006,06,12,14,23,14.10
2006,06,12,14,24,14.10
2006,06,12,14,25,14.10
2006,06,12,14,26,14.10
2006,06,12,14,27,14.10
2006,06,12,14,28,14.10
2006,06,12,14,29,14.10
2006,06,12,14,30,14.10
2006,06,12,14,31,14.10
2006,06,12,14,32,14.10
2006,06,12,14,33,14.10
2006,06,12,14,34,14.10
2006,06,12,14,35,14.10
2006,06,12,14,36,14.10
2006,06,12,14,37,14.10
2006,06,12,14,38,14.40
2006,06,12,14,39,14.40
2006,06,12,14,40,14.40
2006,06,12,14,41,14.40
2006,06,12,14,42,14.40
2006,06,12,14,43,14.40
2006,06,12,14,44,14.40
2006,06,12,14,45,14.40
2006,06,12,14,46,13.60
2006,06,12,14,47,13.60
2006,06,12,14,48,13.60
2006,06,12,14,49,13.60
2006,06,12,14,50,13.60
2006,06,12,14,51,13.60
2006,06,12,14,52,13.60
2006,06,12,14,53,13.60
2006,06,12,14,54,13.60
2006,06,12,14,55,13.60
2006,06,12,14,56,13.60
2006,06,12,14,57,13.60
2006,06,12,14,58,13.60
2006,06,12,14,59,13.60
2006,06,12,15,00,12.80
2006,06,12,15,01,12.80
2006,06,12,15,02,12.80
2006,06,12,15,03,12.80
2006,06,12,15,04,12.80
2006,06,12,15,05,12.80
2006,06,12,15,06,12.80
2006,06,12,15,07,12.80
2006,06,12,15,08,12.80
2006,06,12,15,09,12.80
2006,06,12,15,10,12.80
2006,06,12,15,11,12.80
2006,06,12,15,12,12.80
2006,06,12,15,13,12.80
2006,06,12,15,14,12.80
2006,06,12,15,15,12.80
2006,06,12,15,16,12.80
2006,06,12,15,17,12.80
2006,06,12,15,18,12.80
2006,06,12,15,19,12.80
2006,06,12,15,20,12.80
2006,06,12,15,21,12.80
2006,06,12,15,22,12.80
2006,06,12,15,23,12.80
2006,06,12,15,24,12.80
2006,06,12,15,25,12.80
2006,06,12,15,26,12.80
2006,06,12,15,27,12.80
2006,06,12,15,28,12.80
2006,06,12,15,29,12.80
2006,06,12,15,30,12.80
2006,06,12,15,31,12.80
2006,06,12,15,32,12.80
2006,06,12,15,33,12.80
2006,06,12,15,34,12.80
2006,06,12,15,35,12.80
2006,06,12,15,36,12.80
2006,06,12,15,37,12.80
2006,06,12,15,38,14.90
2006,06,12,15,39,14.90
2006,06,12,15,40,14.90
2006,06,12,15,41,14.90
2006,06,12,15,43,14.90
2006,06,12,15,44,14.90
2006,06,12,15,45,14.90
2006,06,12,15,46,14.90
2006,06,12,15,47,14.90
2006,06,12,15,48,14.90
2006,06,12,15,49,14.90
2006,06,12,15,50,14.90
2006,06,12,15,52,14.90
2006,06,12,15,53,14.90
2006,06,12,15,54,14.90
2006,06,12,15,55,14.90
2006,06,12,15,56,14.90
2006,06,12,15,57,14.90
2006,06,12,15,58,13.40
2006,06,12,15,59,13.40
2006,06,12,16,00,13.40
2006,06,12,16,02,13.40
2006,06,12,16,03,13.40
2006,06,12,16,05,13.40
2006,06,12,16,07,12.60
2006,06,12,16,08,12.60
2006,06,12,16,09,12.60
2006,06,12,16,10,12.60
2006,06,12,16,11,12.60
2006,06,12,16,12,12.60
2006,06,12,16,13,12.60
2006,06,12,16,14,12.60
2006,06,12,16,15,12.60
2006,06,12,16,16,12.60
2006,06,12,16,17,12.60
2006,06,12,16,18,12.60
2006,06,12,16,20,12.90
2006,06,12,16,21,12.90
2006,06,12,16,23,12.90
2006,06,12,16,24,12.90
2006,06,12,16,25,12.90
2006,06,12,16,26,12.90
2006,06,12,16,27,12.90
2006,06,12,16,28,12.90
2006,06,12,16,29,12.90
2006,06,12,16,30,12.90
2006,06,12,16,31,12.90
2006,06,12,16,32,12.90
2006,06,12,16,33,12.90
2006,06,12,16,34,12.90
2006,06,12,16,35,12.90
2006,06,12,16,36,12.90
2006,06,12,16,37,12.90
2006,06,12,16,38,12.90
2006,06,12,16,39,12.30
2006,06,12,16,40,12.30
2006,06,12,16,41,12.30
2006,06,12,16,42,12.30
2006,06,12,16,43,12.30
2006,06,12,16,44,12.30
2006,06,12,16,45,12.30
2006,06,12,16,46,12.30
2006,06,12,16,47,12.30
2006,06,12,16,48,12.30
2006,06,12,16,49,12.30
2006,06,12,16,50,12.30
2006,06,12,16,51,12.30
2006,06,12,16,52,12.30
2006,06,12,16,53,12.30
2006,06,12,16,54,12.30
2006,06,12,16,55,12.30
2006,06,12,16,56,12.30
2006,06,12,16,57,12.30
2006,06,12,16,58,13.10
2006,06,12,16,59,13.10
2006,06,12,17,00,13.10
2006,06,12,17,01,13.10
2006,06,12,17,02,13.10
2006,06,12,17,03,13.10
2006,06,12,17,04,13.10
2006,06,12,17,06,13.10
2006,06,12,17,07,13.10
2006,06,12,17,08,13.10
2006,06,12,17,09,13.10
2006,06,12,17,10,13.10
2006,06,12,17,11,13.10
2006,06,12,17,12,13.10
2006,06,12,17,13,13.10
2006,06,12,17,14,13.10
2006,06,12,17,15,13.10
2006,06,12,17,16,13.60
2006,06,12,17,17,13.60
2006,06,12,17,18,13.60
2006,06,12,17,19,13.60
2006,06,12,17,20,13.60
2006,06,12,17,21,13.60
2006,06,12,17,22,13.60
2006,06,12,17,23,13.60
2006,06,12,17,24,13.60
2006,06,12,17,25,13.60
2006,06,12,17,26,13.60
2006,06,12,17,27,13.60
2006,06,12,17,28,13.60
2006,06,12,17,29,13.60
2006,06,12,17,30,13.60
2006,06,12,17,31,13.60
2006,06,12,17,33,13.60
2006,06,12,17,34,13.60
2006,06,12,17,35,13.60
2006,06,12,17,36,13.60
2006,06,12,17,37,13.60
2006,06,12,17,38,13.60
2006,06,12,17,39,13.40
2006,06,12,17,40,13.40
2006,06,12,17,41,13.40
2006,06,12,17,42,13.40
2006,06,12,17,43,13.40
2006,06,12,17,44,13.40
2006,06,12,17,45,13.40
2006,06,12,17,46,13.40
2006,06,12,17,47,13.40
2006,06,12,17,48,13.40
2006,06,12,17,49,13.40
2006,06,12,17,50,13.40
2006,06,12,17,51,13.40
2006,06,12,17,52,13.40
2006,06,12,17,53,13.40
2006,06,12,17,54,13.40
2006,06,12,17,55,13.40
2006,06,12,17,56,13.40
2006,06,12,17,57,13.40
2006,06,12,17,58,12.90
2006,06,12,17,59,12.90
2006,06,12,18,00,12.90
2006,06,12,18,01,12.90
2006,06,12,18,02,12.90
2006,06,12,18,03,12.90
2006,06,12,18,04,12.90
2006,06,12,18,05,12.90
2006,06,12,18,06,12.90
2006,06,12,18,07,12.90
2006,06,12,18,08,12.90
2006,06,12,18,09,12.90
2006,06,12,18,10,12.90
2006,06,12,18,12,12.90